Hourly Weather Roundup
Issued by NWS Central Illinois

Current Version | Previous Version | Text Only | Print | Product List | Glossary On
Versions: 1 2 3 4 5 6 7 8 9 10 11 12 13 14 15 16 17 18 19 20 21 22 23 24 25 26 27 28 29 30 31 32 33 34 35 36 37 38 39 40 41 42 43 44 45 46 47 48 49 50
000
NZUS43 KILX 261210
HWRILX

AREA WEATHER ROUNDUP
NATIONAL WEATHER SERVICE, LINCOLN IL
700 AM CDT MON SEP 26 2016


CITY           SKY/WX    TMP DP  RH WIND       PRES   REMARKS
BLOOMINGTON    CLOUDY    58  52  80 W9        30.09S
6HR MIN TEMP:  58; 6HR MAX TEMP:  65; 6HR PCP:  0.05;

CHAMPAIGN      CLOUDY    58  55  90 W6        30.08R
6HR MIN TEMP:  58; 6HR MAX TEMP:  66; 6HR PCP:  0.24;

DANVILLE       CLOUDY    57  56  97 W8        30.05R
6HR MIN TEMP:  57; 6HR MAX TEMP:  64; 6HR PCP:  0.13;

DECATUR        CLOUDY    60  53  77 NW12      30.10R
6HR MIN TEMP:  59; 6HR MAX TEMP:  68; 6HR PCP:  0.03;

EFFINGHAM      CLOUDY    58  58 100 W6        30.13R
FLORA          LGT RAIN  60  58  94 NW7       30.12R
6HR MIN TEMP:  59; 6HR MAX TEMP:  74; 6HR PCP:  0.12;

GALESBURG      CLEAR     52  47  83 W7        30.11R
JACKSONVILLE   CLOUDY    56  54  91 W5        30.14R
6HR MIN TEMP:  56; 6HR MAX TEMP:  60; 6HR PCP:  0.03;

LACON          CLOUDY    57  49  73 W8        30.07S
6HR MIN TEMP:  57; 6HR MAX TEMP:  63;

LAWRENCEVILLE  CLOUDY    61  56  83 NW12      30.09R
6HR MIN TEMP:  60; 6HR MAX TEMP:  75; 6HR PCP:  0.26;

LITCHFIELD     CLOUDY    57  54  89 W5        30.14R
$$


CITY           SKY/WX    TMP DP  RH WIND       PRES   REMARKS
LINCOLN        NOT AVBL
MACOMB         CLEAR     52  49  89 W6        30.15R
MATTOON        CLOUDY    58  55  90 W7        30.10R
6HR MIN TEMP:  57; 6HR MAX TEMP:  68; 6HR PCP:  0.13;

MT CARMEL AP   CLOUDY    60  57  91 NW6       30.10R
6HR MIN TEMP:  60; 6HR MAX TEMP:  74; 6HR PCP:  0.89;

OLNEY-NOBLE AP LGT RAIN  57  57 100 NW8       30.12R
PARIS          CLOUDY    57  57  99 CALM      30.09S
6HR MIN TEMP:  57; 6HR MAX TEMP:  68; 6HR PCP:  0.13;

PEORIA         CLOUDY    57  50  77 W6        30.10R
6HR MIN TEMP:  57; 6HR MAX TEMP:  63; 6HR PCP: TRACE;

PONTIAC        CLOUDY    58  55  88 W8        30.07R
RANTOUL        CLOUDY    59  56  91 W7        30.08R
6HR MIN TEMP:  59; 6HR MAX TEMP:  67;

ROBINSON       LGT RAIN  57  56  97 NW7       30.10R
6HR MIN TEMP:  57; 6HR MAX TEMP:  71; 6HR PCP:  0.08;

SPRINGFIELD    CLOUDY    59  54  83 W8        30.13R
6HR MIN TEMP:  59; 6HR MAX TEMP:  67; 6HR PCP:  0.10;

TAYLORVILLE    CLOUDY    58  55  89 W7        30.12R
$$

...REGIONAL REPORTS...


CITY           SKY/WX    TMP DP  RH WIND       PRES   REMARKS
CHICAGO O`HARE CLOUDY    59  50  72 W13       29.99R
KANKAKEE       CLOUDY    57  54  88 SW5       30.04S
MOLINE         CLEAR     52  46  80 SW7       30.08R
MOUNT STERLING CLEAR     54  49  86 W6        30.14R
MOUNT VERNON   CLOUDY    57  52  82 CALM      30.14R
PITTSFIELD     CLOUDY    57  53  86 W5        30.16R
QUINCY         CLEAR     54  48  80 W6        30.15R
ROCKFORD       PTCLDY    55  48  77 SW10      30.03R
$$


CITY           SKY/WX    TMP DP  RH WIND       PRES   REMARKS
BURLINGTON     CLEAR     51  48  89 W6        30.12R
CEDAR RAPIDS   CLEAR     50  44  80 W12       30.07S
DES MOINES     CLEAR     50  41  71 W8        30.15R
KIRKSVILLE     CLEAR     48  43  82 W5        30.19R
OTTUMWA        CLEAR     47  42  83 W8        30.14R
ST LOUIS       CLOUDY    61  56  83 W7        30.15S
$$


CITY           SKY/WX    TMP DP  RH WIND       PRES   REMARKS
TERRE HAUTE    LGT RAIN  59  56  89 NW7       30.07S
EVANSVILLE     LGT RAIN  61  58  90 W5        30.11R
INDIANAPOLIS   LGT RAIN  59  57  93 NW10      30.05R
LAFAYETTE      CLOUDY    57  57 100 W7        30.04R
MADISON        PTCLDY    53  45  74 VRB6      29.95S
MILWAUKEE      CLOUDY    59  49  69 W14       29.94R
$$






USA.gov is the U.S. government's official web portal to all federal, state and local government web resources and services.